Regional Weather Roundup
Issued by NWS

Home | Current Version | Previous Version | Text Only | Print | Product List | Glossary On
Versions: 1 2 3 4 5 6 7 8 9 10 11 12 13 14 15 16 17 18 19 20 21 22 23 24 25 26 27 28 29 30 31 32 33 34 35 36 37 38 39 40 41 42 43 44 45 46 47 48 49 50
000
ASUS43 KDTX 262010
RWRMI
MICHIGAN HOURLY REGIONAL WEATHER ROUNDUP
NATIONAL WEATHER SERVICE DETROIT/PONTIAC MI
ISSUED BY NATIONAL WEATHER SERVICE GRAND RAPIDS MI
400 PM EDT MON JUN 26 2017

NOTE: "FAIR" INDICATES FEW OR NO CLOUDS BELOW 12,000 FEET WITH NO
SIGNIFICANT WEATHER AND/OR OBSTRUCTION TO VISIBILITY.

MIZ047>049-052>055-059>063-066>070-074>076-081>083-262100-
SOUTHEAST LOWER MICHIGAN

CITY           SKY/WX    TMP DP  RH WIND       PRES   REMARKS
ADRIAN         PTSUNNY   69  40  34 NW17G24   30.03F
ALMA           MOSUNNY   67  43  41 W21G33    29.99S
ANN ARBOR      MOSUNNY   70  42  36 W18G24    30.00F
BAD AXE        HVY RAIN  57  47  70 W12G28    29.96R
DETROIT CITY   MOSUNNY   70  40  33 W16G29    29.98F
DETROIT        MOSUNNY   72  42  34 W16G26    29.99F
FLINT          MOSUNNY   70  43  37 W21G28    29.97F
GROSSE ILE     PTSUNNY   72  44  36 W10G21    29.99F
HILLSDALE      MOSUNNY   68  43  40 W12G23    30.02F
HOWELL         MOSUNNY   69  36  28 W15G26    29.99F

CITY           SKY/WX    TMP DP  RH WIND       PRES   REMARKS
JACKSON        MOSUNNY   67  43  41 W12G21    30.02S
LANSING        MOSUNNY   69  40  34 W23G31    30.01F
MASON          PTSUNNY   68  43  39 W18G24    30.01S
MONROE         PTSUNNY   71  43  36 W20       30.00F
MT. CLEMENS    MOSUNNY   70  41  35 W20G28    29.95F
PONTIAC        MOSUNNY   69  41  36 W15G24    29.97F
PORT HOPE        N/A     67  47  48 W15G23    29.92F
PORT HURON     PTSUNNY   59  52  77 S5        29.98F
TRI CITIES     PTSUNNY   68  47  46 W21G28    29.96F
YPSILANTI      MOSUNNY   72  39  30 W25G32    30.00F
$$
MIZ043>046-050>051-056>058-064>065-071>073-077>080-262100-
SOUTHWEST LOWER MICHIGAN

CITY           SKY/WX    TMP DP  RH WIND       PRES   REMARKS
BATTLE CREEK   PTSUNNY   66  44  45 W13       30.03F
BENTON HARBOR  MOSUNNY   69  46  43 W13       30.04F
BIG RAPIDS     CLOUDY    61  42  49 W15G25    30.00F
COLDWATER      PTSUNNY   69  38  32 W15G28    30.02F
HOLLAND        MOSUNNY   67  49  52 W13G20    30.04F
GRAND RAPIDS   PTSUNNY   64  44  48 W18       30.02F
KALAMAZOO      PTSUNNY   69  39  33 W14G20    30.04F
MARSHALL       PTSUNNY   66  42  42 W18G29    30.02F
MOUNT PLEASANT MOSUNNY   64  45  49 W14G23    29.98S
MUSKEGON       PTSUNNY   65  47  52 NW14G20   30.03F
STURGIS        CLOUDY    69  43  39 NW10G21   30.03S
$$
MIZ016>042-262100-
NORTHERN LOWER MICHIGAN

CITY           SKY/WX    TMP DP  RH WIND       PRES   REMARKS
ALPENA         LGT RAIN  60  56  86 W3        29.92S
BEAVER ISLAND  LGT RAIN  56  54  93 N6        29.95S
BELLAIRE       LGT RAIN  54  51  90 SW3       29.97S
CADILLAC       CLOUDY    57  44  61 W9G18     29.99S
CHARLEVOIX     PTSUNNY   59  53  80 W15       29.98S
GAYLORD        LGT RAIN  55  49  80 W13       29.96R
HOUGHTON LAKE  CLOUDY    60  45  57 W17G24    29.98S
MANISTEE       CLOUDY    58  47  66 W14       30.00F
OSCODA         MOSUNNY   68  42  39 W13G25    29.91F
PELLSTON       CLOUDY    56  52  86 W7        29.94S
TRAVERSE CITY  CLOUDY    58  46  64 W10       29.97R
LUDINGTON      PTSUNNY   58  47  66 W9        30.02S
$$
MIZ007>008-015-262100-
EASTERN UPPER MICHIGAN

CITY           SKY/WX    TMP DP  RH WIND       PRES   REMARKS
KINROSS        LGT RAIN  54  52  94 N16       29.93S
MACKINAC ISLAN LGT RAIN  54  54 100 W5        29.93S
NEWBERRY       LGT RAIN  52  51  97 N7        29.96S
S. S. MARIE    LGT RAIN  55  51  86 NW9       29.93R
$$
MIZ004>006-011>014-085-262100-
CENTRAL UPPER MICHIGAN

CITY           SKY/WX    TMP DP  RH WIND       PRES   REMARKS
MANISTIQUE     CLOUDY    57  53  87 NW10G16   29.96S
ESCANABA       CLOUDY    57  51  80 N12G18    29.99S
MENOMINEE      LGT RAIN  55  52  89 N9        30.01R
SAWYER-GWINN   PTSUNNY   57  50  77 N10       30.01F
$$
MIZ001>003-009>011-084-262100-
WESTERN UPPER MICHIGAN

CITY           SKY/WX    TMP DP  RH WIND       PRES   REMARKS
IRON MOUNTAIN  LGT RAIN  59  49  69 N10       30.02R
HOUGHTON       SUNNY     59  48  67 W15       30.02F
COPPER HARBOR    N/A     60  53  77 N15       30.00F
IRONWOOD       SUNNY     63  41  44 W6G16     30.07F
$$

ABBREVIATIONS USED IN REMARKS
   TC - TEMPERATURE IN CELSIUS
  WCI - WIND CHILL INDEX
   HX - HEAT INDEX
  VSB - VISIBILITY




USA.gov is the U.S. government's official web portal to all federal, state and local government web resources and services.